Flag for Iran Weather past 2 weeks in Esfahãn, Iran

Now
88 °F

Sunny.


Feels Like: 84 °F
Forecast: 59 / 94 °F
Wind: 9 mph from Northeast

Location: Esfahan

Current Time: Aug 2, 2015 at 9:05:46 PM

Latest Report: Aug 2, 2015 at 8:30 PM


Visibility: 10 mi

Pressure: 30.01 "Hg (25.14 "Hg at 1576m altitude)

Humidity: 12%

Dew point: 28 °F

Location of EsfahãnLocation

Historic Weather in Esfahãn — Graph

°F

Esfahãn temperature yesterday

Maximum temperature yesterday: 95 °F (at 4:30 PM)
Minimum temperature yesterday: 59 °F (at 6:00 AM)
Average temperature yesterday: 80 °F

Past Weeks' High & Low Weather Summary

 TemperatureHumidityPressure
High100 °F (Jul 19, 4:00 PM)100% (Jul 21, 6:00 AM)30.09 "Hg (Jul 21, 6:00 AM)
Low55 °F (Aug 2, 6:00 AM)5% (Jul 18, 7:30 PM)29.59 "Hg (Jul 19, 6:30 PM)
Average80 °F25%29.95 "Hg
* Reported Jul 18 7:30 PM — Aug 2 8:00 PM, Esfahãn, Weather by CustomWeather, © 2015

Note: Actual official high and low records may vary slightly from our data, if they occured in-between our weather recording intervals... More about our weather records

Advertising

Esfahãn weather history for previous 24 hours

 ConditionsComfort  
Time TempWeatherWind HumidityBarometerVisibility
8:00 PM
Sun, Aug 2
90 °FSunny.12 mph10%30.01 "Hg10 mi
7:30 PM93 °FSunny.12 mph9%30.01 "Hg10 mi
7:00 PM95 °FSunny.12 mph7%30.01 "Hg10 mi
6:30 PM95 °FPassing clouds.9 mph8%30.01 "HgN/A
6:00 PM97 °FPassing clouds.12 mph6%30.01 "HgN/A
5:30 PM97 °FPassing clouds.14 mph7%30.01 "HgN/A
5:00 PM97 °FPassing clouds.7 mph8%30.01 "HgN/A
4:30 PM95 °FPassing clouds.12 mph9%30.01 "HgN/A
4:00 PM97 °FPassing clouds.7 mph8%30.01 "HgN/A
3:30 PM93 °FPassing clouds.No wind9%30.01 "HgN/A
2:30 PM95 °FSunny.9 mph9%30.04 "Hg10 mi
2:00 PM93 °FSunny.9 mph10%30.04 "Hg10 mi
1:30 PM91 °FSunny.5 mph10%30.07 "Hg10 mi
1:00 PM93 °FSunny.7 mph11%30.07 "Hg10 mi
12:30 PM90 °FSunny.5 mph12%30.07 "Hg10 mi
12:00 PM88 °FSunny.7 mph12%30.09 "Hg10 mi
11:30 AM88 °FSunny.12 mph12%30.09 "Hg10 mi
11:00 AM86 °FSunny.7 mph15%30.09 "Hg10 mi
10:30 AM82 °FClear.7 mph19%30.09 "Hg5 mi
10:00 AM82 °FClear.5 mph19%30.09 "Hg4 mi
9:30 AM79 °FClear.7 mph20%30.09 "Hg4 mi
9:00 AM75 °FHaze.7 mph24%30.09 "Hg2 mi
8:30 AM72 °FHaze.7 mph29%30.09 "Hg2 mi
8:00 AM68 °FHaze.7 mph30%30.09 "Hg2 mi
7:30 AM59 °FHaze.7 mph34%30.09 "Hg1 mi
7:00 AM61 °FHaze.7 mph36%30.09 "Hg1 mi
6:30 AM57 °FClear.9 mph39%30.07 "Hg10 mi
6:00 AM55 °FClear.5 mph36%30.07 "Hg10 mi
5:30 AM59 °FClear.2 mph31%30.07 "Hg10 mi
5:00 AM66 °FClear.5 mph30%30.07 "Hg10 mi
4:30 AM64 °FClear.5 mph32%30.07 "Hg10 mi
4:00 AM64 °FClear.7 mph32%30.07 "Hg10 mi
3:30 AM66 °FClear.7 mph32%30.07 "Hg10 mi
2:30 AM75 °FClear.9 mph21%30.07 "Hg10 mi
2:00 AM75 °FClear.9 mph22%30.07 "Hg10 mi
1:30 AM73 °FClear.7 mph23%30.07 "Hg10 mi
1:00 AM75 °FClear.9 mph19%30.07 "Hg10 mi
12:30 AM77 °FClear.7 mph19%30.07 "Hg10 mi
12:00 AM79 °FClear.9 mph16%30.07 "Hg10 mi
11:30 PM
Sat, Aug 1
79 °FClear.7 mph17%30.04 "Hg10 mi
11:00 PM79 °FClear.12 mph18%30.04 "Hg10 mi
10:30 PM79 °FClear.7 mph18%30.04 "Hg10 mi
10:00 PM81 °FClear.7 mph18%30.01 "Hg10 mi
9:30 PM86 °FSunny.9 mph14%30.01 "Hg10 mi
9:00 PM86 °FSunny.16 mph14%29.98 "Hg10 mi
Weather by CustomWeather, © 2015

See weather overviewHow to use our weather pages